Dewpoint
14 8 6 5 7 5 3 0 2 3 10 12 11 11 11 12 11 6 7 12 14 18 19 22 34 40 44 45 45 48 49 53 58 61 62 61 60 59 60 61 61 61 62 63
15 8 -1 -1 4 7 6 1 -1 -0 9 13 9 6 5 4 7 8 10 13 17 19 22 33 37 41 44 48 51 52 53 56 58 60 61 60 60 60 60 60 60 60 60 62
7 6 13 14 14 10 8 6 3 2 3 5 4 1 2 6 9 12 17 18 20 27 34 37 41 42 44 47 52 53 53 57 58 58 60 60 60 60 59 59 60 60 60 60
7 10 9 11 15 15 11 10 7 5 6 2 4 2 6 10 11 14 14 20 30 36 38 39 39 41 43 50 55 54 55 57 59 59 59 59 59 58 58 59 61 61 61 61
10 11 10 10 9 11 11 11 14 14 9 6 5 8 2 8 11 11 18 31 37 40 40 37 37 40 42 49 55 56 56 58 58 60 60 59 58 57 58 59 60 60 60 60
18 18 12 11 8 9 10 13 18 18 12 10 9 8 1 6 8 12 29 36 37 36 36 36 37 40 42 46 53 57 57 58 59 60 60 59 58 57 58 60 59 59 59 58
13 16 16 17 11 19 13 15 11 11 11 8 0 2 2 6 20 28 33 34 35 36 37 37 39 41 44 47 48 53 56 56 58 59 59 59 58 57 57 59 58 58 58 57
7 13 19 14 16 15 17 16 8 7 5 4 7 2 10 30 32 32 32 34 36 36 36 37 40 44 46 49 51 50 53 55 57 58 58 59 58 57 58 58 58 58 59 59
7 7 20 21 24 16 17 20 17 11 10 5 5 20 29 28 23 23 25 28 33 35 37 36 37 43 45 47 51 53 52 55 56 57 58 58 58 58 57 58 59 59 59 59
12 10 13 21 28 28 20 19 12 13 8 1 -1 8 10 22 15 8 4 6 18 28 32 35 37 40 40 44 47 51 55 54 55 56 58 59 58 57 57 58 59 59 59 60
8 13 10 14 23 27 30 24 23 20 11 6 3 4 18 21 18 12 9 7 9 19 29 35 38 38 39 43 45 48 53 55 55 56 57 58 57 57 57 57 57 58 58 58
10 12 11 10 16 23 26 31 32 25 17 15 11 11 21 25 22 10 11 8 11 12 30 35 37 39 40 43 45 47 48 55 56 56 57 58 57 56 56 56 56 56 55 57
19 10 5 3 16 25 22 17 21 26 27 19 14 11 25 26 19 9 8 6 11 11 27 32 36 39 42 44 45 46 47 48 56 56 57 57 57 55 55 54 55 57 57 57
22 12 9 5 17 18 14 18 15 13 14 16 14 10 13 10 4 4 6 7 12 13 23 31 38 41 42 43 45 45 46 47 55 56 56 57 56 53 53 55 56 56 56 56
17 9 5 4 6 8 13 14 12 10 8 6 9 5 3 3 4 4 7 9 13 17 22 35 40 43 44 44 44 44 45 46 50 55 56 55 54 55 55 56 56 56 56 56
16 12 9 6 6 8 9 8 8 7 9 7 5 6 6 4 3 7 10 11 17 24 35 41 42 42 42 42 42 43 44 45 46 55 55 54 54 55 55 55 55 56 56 56
21 15 10 7 4 3 3 4 5 5 5 6 6 4 3 4 7 11 14 15 27 35 41 41 41 41 41 42 41 42 43 45 46 51 55 54 54 54 55 55 55 55 54 52
23 18 15 11 8 5 1 3 7 6 6 3 4 5 7 12 17 24 25 24 36 41 40 39 39 39 39 40 41 40 42 44 46 48 55 54 53 53 54 54 54 51 48 46
20 20 15 12 6 3 4 6 5 4 3 4 8 18 22 30 34 30 35 40 39 39 38 38 38 38 38 38 37 39 41 42 43 47 54 54 53 53 54 51 48 44 42 39
26 25 18 12 12 7 9 15 17 18 11 29 32 33 34 35 32 35 39 38 38 37 36 36 36 36 35 35 35 38 37 37 37 39 49 54 53 54 50 46 42 40 37 35
23 26 20 17 18 16 17 22 23 14 21 32 35 34 32 34 36 38 37 36 35 35 35 34 34 34 33 32 33 34 34 34 35 37 40 53 53 50 45 41 38 36 34 32
22 21 22 22 19 16 27 23 25 29 34 35 35 37 38 40 38 37 34 33 33 33 33 32 32 31 31 30 30 30 30 32 34 36 36 46 45 42 40 37 35 34 32 30
21 26 23 26 24 31 33 34 34 34 36 37 37 36 37 35 35 33 32 31 31 31 31 30 29 29 28 28 28 28 29 30 33 33 33 33 37 37 37 35 33 32 32 30
26 30 28 27 29 30 31 33 35 36 34 33 34 33 33 32 32 31 29 29 28 28 28 27 27 26 25 26 26 27 29 29 30 31 31 32 32 31 32 32 32 32 30 29
29 31 27 28 28 30 32 31 31 32 33 33 32 30 30 30 29 29 27 26 26 26 25 26 25 25 24 24 25 26 27 28 28 29 29 30 31 28 28 29 29 28 29 28
30 27 25 24 28 28 30 32 33 32 31 33 31 30 28 28 27 27 26 26 25 24 24 24 24 24 23 23 23 25 27 27 27 26 27 27 28 28 27 26 25 28 27 27
Wind_Speed
16 20 31 27 25 25 24 23 23 21 11 16 23 22 16 14 20 20 18 17 15 11 6 8 8 10 12 13 12 14 15 16 19 20 23 19 20 17 17 17 19 17 18 20
14 29 25 23 24 24 26 27 30 23 11 16 23 28 25 17 22 19 17 13 9 6 6 9 13 14 14 16 14 12 12 15 20 18 19 15 17 15 16 15 17 18 21 20
27 14 12 20 21 24 26 28 23 23 16 18 20 26 26 17 17 12 10 6 1 1 5 9 14 14 14 16 14 12 10 12 17 20 18 17 17 12 13 16 16 19 23 23
21 20 21 12 18 20 25 19 20 20 13 22 13 16 9 10 10 13 7 5 4 0 5 8 12 14 15 16 12 8 8 10 17 20 20 24 21 19 16 18 16 17 20 19
15 9 16 24 28 19 20 13 12 18 21 22 20 11 15 9 19 12 8 5 3 2 5 9 11 13 14 16 14 9 6 9 16 18 23 21 19 14 12 13 17 17 14 15
18 20 12 14 15 19 23 15 12 13 15 24 22 19 13 20 21 9 9 7 4 4 7 10 12 12 14 16 12 10 7 9 13 17 20 20 17 13 13 14 15 15 13 11
15 18 19 19 16 8 16 16 14 14 18 28 14 15 19 10 7 8 8 5 4 6 8 12 15 16 16 19 15 7 7 10 12 14 18 18 16 15 15 15 15 16 15 15
10 10 1 8 21 17 20 23 18 15 21 24 13 12 8 11 11 9 5 2 4 6 9 13 15 15 17 19 19 14 8 12 13 15 16 18 18 15 16 16 14 16 14 16
11 11 5 7 5 22 19 24 25 19 12 11 12 8 9 11 11 9 7 5 6 9 10 12 13 13 16 18 22 17 8 10 15 16 15 18 18 18 18 15 16 16 16 13
7 13 5 4 13 6 17 16 22 17 23 28 26 21 13 19 11 8 9 9 8 9 11 11 11 13 16 16 15 22 10 10 14 16 16 19 20 19 16 13 14 13 12 13
13 10 17 9 3 5 6 13 8 12 24 26 26 21 17 20 9 4 7 10 10 11 11 10 10 13 16 15 15 15 17 12 13 17 17 20 19 19 18 16 14 13 12 11
8 8 14 14 5 6 9 6 4 7 17 17 13 7 16 13 4 5 7 10 9 13 11 8 8 11 14 15 16 19 19 15 14 16 17 18 17 19 17 17 15 12 11 12
12 5 12 15 9 7 5 7 1 1 7 11 15 13 13 7 6 9 10 14 11 14 12 10 10 10 11 12 17 17 17 24 14 17 18 16 17 18 19 16 14 11 9 8
14 12 13 18 10 9 7 8 12 6 5 7 14 11 7 8 12 12 18 15 15 16 13 11 11 10 10 12 13 16 16 19 14 15 16 16 17 17 18 17 14 12 10 9
7 17 17 18 20 17 16 18 15 13 15 14 17 16 16 18 19 20 17 17 17 17 14 10 9 11 13 15 15 13 14 18 20 15 16 16 16 16 17 17 14 12 10 8
6 11 13 18 19 17 20 19 20 20 19 21 23 23 24 17 13 14 18 17 19 16 9 9 9 12 13 16 16 16 14 18 22 16 18 18 18 18 18 18 15 13 11 9
12 9 13 18 12 15 18 22 21 24 21 18 21 24 23 19 20 21 21 18 17 9 8 10 12 13 15 16 15 16 16 18 19 16 17 18 20 19 19 18 17 14 13 12
17 17 14 16 13 15 14 10 11 14 16 16 19 23 23 22 23 24 23 18 6 4 6 9 12 14 15 17 17 19 16 18 17 18 16 18 20 18 19 19 17 16 16 16
16 19 14 13 14 16 21 10 11 15 19 17 16 17 20 23 27 23 3 4 4 6 8 10 13 15 16 17 19 19 18 19 18 20 17 20 20 18 17 18 19 17 21 17
5 11 17 13 8 5 4 5 11 8 16 9 6 12 19 18 17 7 8 8 8 9 11 13 14 14 15 17 19 17 16 16 17 18 10 20 20 18 17 19 21 14 20 20
12 6 19 20 12 8 6 10 12 11 6 12 10 18 22 15 6 8 9 10 12 11 13 14 13 13 15 18 18 16 16 14 18 18 19 17 20 21 20 18 20 22 22 22
7 10 4 3 5 3 11 6 5 13 17 15 17 13 11 5 8 9 9 11 13 13 14 15 13 14 15 17 18 17 17 19 18 17 14 8 22 21 21 25 20 21 25 25
5 7 8 7 8 19 22 18 18 15 13 6 10 13 14 14 12 11 11 12 13 14 15 14 14 13 16 17 17 17 19 18 12 13 17 18 14 20 20 25 24 21 21 23
10 14 5 17 16 22 14 17 19 14 11 9 12 13 13 12 12 11 12 13 13 13 14 13 14 16 17 17 16 15 16 14 13 17 16 16 19 20 18 18 17 20 19 20
6 12 13 6 13 13 21 19 17 15 13 11 13 14 15 13 13 11 11 12 12 13 14 14 15 15 16 16 17 17 15 12 12 14 13 17 17 25 19 19 17 21 17 18
6 5 7 5 16 12 10 15 15 14 13 15 15 14 14 13 13 11 11 11 12 13 13 14 15 14 15 15 15 16 15 13 11 14 14 19 17 17 22 23 29 33 32 38
Wind_Direction
205 221 226 228 226 245 256 259 258 263 261 257 257 258 252 242 256 259 252 258 261 256 292 294 334 334 326 304 289 270 249 219 205 202 199 187 188 181 192 197 205 201 208 194
209 234 246 243 243 237 244 252 256 265 245 269 269 270 270 253 248 248 250 244 234 291 302 334 336 333 331 325 302 278 239 211 206 195 194 193 190 193 192 193 196 193 206 204
237 243 235 236 235 236 238 245 254 258 268 256 265 274 256 245 237 217 210 212 223 293 323 342 347 348 334 329 315 272 237 208 213 201 193 194 181 171 187 196 196 201 211 216
254 266 246 233 237 234 246 238 249 256 250 254 226 262 167 176 189 179 173 170 156 15 15 356 343 350 348 349 332 281 247 203 211 207 189 195 188 189 200 196 187 200 212 212
245 265 252 241 244 230 246 232 242 247 240 253 236 251 243 197 179 165 154 135 108 39 353 347 348 343 354 2 349 322 275 209 215 206 201 199 203 202 190 180 186 198 184 203
262 268 263 262 261 252 242 248 247 229 226 240 238 221 222 184 204 162 136 100 88 38 9 353 356 346 354 357 356 332 299 238 214 214 212 202 203 199 191 182 191 189 167 165
301 264 237 232 253 234 225 212 204 216 218 241 237 217 235 125 105 129 124 101 53 24 10 1 2 355 349 349 344 332 285 244 203 216 206 204 200 199 198 195 199 188 172 166
302 287 284 228 230 238 199 204 220 219 228 235 189 222 157 108 118 114 99 71 16 8 9 8 6 357 354 350 345 326 270 241 213 209 204 204 193 194 199 195 201 195 179 177
309 264 335 71 343 225 218 229 236 263 281 276 191 107 125 141 117 105 87 49 17 4 3 0 357 359 357 358 355 339 284 253 222 210 201 195 197 201 201 187 205 186 190 192
302 292 282 297 333 279 224 244 230 234 236 235 237 191 180 169 142 102 55 21 358 347 343 346 347 351 351 352 1 354 317 281 236 212 212 201 203 202 198 190 193 189 181 177
291 273 275 298 121 252 295 221 235 258 229 238 236 224 137 157 138 60 29 6 338 324 321 334 336 342 342 344 349 0 334 270 243 215 213 213 202 201 196 185 185 187 178 185
305 291 276 288 358 21 202 268 282 242 199 228 261 231 152 149 133 351 335 344 329 313 306 316 326 340 347 348 348 360 355 271 236 216 214 215 202 202 196 189 179 184 201 206
329 265 283 253 188 45 5 350 160 191 323 250 234 221 167 178 266 311 324 328 320 308 292 300 314 336 352 355 346 348 347 339 231 209 209 209 195 199 196 188 177 169 173 204
282 275 270 276 316 319 278 282 302 312 258 292 236 251 183 259 288 322 316 318 313 305 286 294 293 309 333 348 353 349 345 333 254 204 206 203 201 202 196 185 165 160 168 186
257 275 279 280 287 288 261 280 279 265 268 265 266 280 291 290 311 313 308 308 309 304 286 285 306 313 330 338 344 350 345 338 313 196 199 204 199 197 189 178 157 158 163 170
264 274 280 275 274 279 278 273 267 269 269 269 271 280 274 298 306 299 303 305 306 299 296 312 324 324 326 329 336 334 343 331 315 216 201 206 192 194 187 172 158 159 155 151
285 281 290 285 285 285 275 265 262 267 267 266 271 273 298 299 294 296 295 294 291 308 314 323 329 332 327 328 336 326 336 315 304 290 199 198 190 188 187 171 162 152 138 128
264 277 285 279 278 255 270 283 280 281 281 274 266 273 284 292 302 297 283 273 282 303 332 343 341 339 335 332 338 330 333 313 304 292 208 188 188 188 188 171 154 131 123 121
248 263 265 255 266 280 290 294 280 260 274 280 276 291 305 311 301 276 250 54 48 15 359 351 349 342 338 341 340 329 338 330 322 281 209 187 179 179 179 146 141 133 121 111
331 247 248 244 258 261 257 337 338 310 278 43 339 306 312 306 285 70 61 40 32 16 9 355 355 346 348 346 341 339 344 329 320 325 286 184 177 165 150 140 131 117 114 112
301 229 218 235 241 262 313 322 291 256 332 341 346 318 293 283 23 42 39 33 30 16 7 4 0 352 356 355 344 350 345 336 323 320 318 193 157 143 138 129 128 123 115 109
316 327 355 244 244 263 11 325 326 334 317 356 318 304 304 95 75 47 25 25 18 11 8 10 0 359 4 1 355 351 346 340 336 351 359 99 132 133 132 127 123 122 119 112
321 334 307 320 308 349 341 315 299 295 305 341 344 12 20 39 34 27 30 23 18 12 11 6 3 359 9 6 2 352 345 338 358 31 46 42 83 114 125 129 126 121 121 122
318 298 315 310 17 346 1 5 16 16 50 32 30 31 31 36 32 38 31 23 18 13 9 1 2 10 4 1 1 354 347 350 13 49 41 76 67 81 96 103 112 120 123 123
294 311 328 334 348 348 21 15 8 13 26 32 45 41 35 32 36 34 32 23 16 13 8 10 11 8 5 0 0 357 354 8 30 44 64 60 75 81 69 77 92 97 89 108
20 350 349 336 335 327 333 3 9 13 13 19 29 33 35 30 31 30 34 28 21 13 11 15 16 11 8 6 2 2 7 22 33 55 52 67 68 77 91 87 84 81 98 99